This is the latest recevied weather packets stored in our database for station/object T10BNorth. If no packets are shown the sender has not sent any weather packets the latest 1 day(s).
| Time | Temp. | Humidity | Pressure | Rain* | Wind** | Luminosity | Snow |
|---|---|---|---|---|---|---|---|
| 1777996255 | 22.22° C | 54% | 1005.5 hPa | 0 mm | 2.68 m/s, 192° | 838 W/m² | - |
| 1777996194 | 22.22° C | 53% | 1005.5 hPa | 0 mm | 2.68 m/s, 111° | 826 W/m² | - |
| 1777996130 | 22.22° C | 52% | 1005.5 hPa | 0 mm | 2.68 m/s, 185° | 833 W/m² | - |
| 1777996070 | 22.22° C | 53% | 1005.4 hPa | 0 mm | 2.68 m/s, 181° | 840 W/m² | - |
| 1777996011 | 22.22° C | 54% | 1005.6 hPa | 0 mm | 2.68 m/s, 220° | 833 W/m² | - |
| 1777995974 | 22.22° C | 55% | 1005.5 hPa | 0 mm | 2.68 m/s, 129° | 823 W/m² | - |
| 1777995952 | 22.22° C | 53% | 1005.5 hPa | 0 mm | 2.68 m/s, 155° | 835 W/m² | - |
| 1777995830 | 22.22° C | 53% | 1005.7 hPa | 0 mm | 2.24 m/s, 140° | 833 W/m² | - |
| 1777995771 | 22.22° C | 53% | 1005.5 hPa | 0 mm | 2.68 m/s, 281° | 861 W/m² | - |
| 1777995711 | 22.22° C | 55% | 1005.6 hPa | 0 mm | 2.68 m/s, 205° | 856 W/m² | - |
| 1777995651 | 22.22° C | 54% | 1005.6 hPa | 0 mm | 2.68 m/s, 319° | 874 W/m² | - |
| 1777995592 | 21.67° C | 54% | 1005.7 hPa | 0 mm | 2.68 m/s, 121° | 844 W/m² | - |
| 1777995532 | 21.67° C | 55% | 1005.6 hPa | 0 mm | 2.68 m/s, 144° | 810 W/m² | - |
| 1777995467 | 21.67° C | 54% | 1005.7 hPa | 0 mm | 2.68 m/s, 105° | 846 W/m² | - |
| 1777995407 | 21.67° C | 55% | 1005.7 hPa | 0 mm | 2.24 m/s, 123° | 867 W/m² | - |
| 1777995347 | 21.67° C | 56% | 1005.6 hPa | 0 mm | 2.24 m/s, 47° | 830 W/m² | - |
| 1777995292 | 21.67° C | 56% | 1005.7 hPa | 0 mm | 2.24 m/s, 119° | 826 W/m² | - |
| 1777995226 | 21.67° C | 55% | 1005.8 hPa | 0 mm | 2.24 m/s, 136° | 826 W/m² | - |
| 1777995160 | 21.67° C | 56% | 1005.8 hPa | 0 mm | 2.24 m/s, 132° | 840 W/m² | - |
| 1777995098 | 21.67° C | 57% | 1005.9 hPa | 0 mm | 2.24 m/s, 64° | 816 W/m² | - |
| 1777995040 | 21.67° C | 57% | 1005.8 hPa | 0 mm | 1.79 m/s, 153° | 789 W/m² | - |
| 1777994980 | 21.11° C | 58% | 1005.8 hPa | 0 mm | 1.79 m/s, 96° | 791 W/m² | - |
| 1777994919 | 21.11° C | 59% | 1005.9 hPa | 0 mm | 1.79 m/s, 174° | 788 W/m² | - |
| 1777994846 | 21.11° C | 58% | 1005.9 hPa | 0 mm | 1.79 m/s, 160° | 779 W/m² | - |
| 1777994787 | 21.11° C | 57% | 1006 hPa | 0 mm | 1.79 m/s, 132° | 791 W/m² | - |
* Rain latest hour (hover to see other rain measurements)
** Current wind speed in m/s (hover to see current wind gust speed)